• In Czech Republic
  • List of Countries
  • For 7 days
  • Water Temperature
  • Satellite Maps
  • Weather Map
  • Weather Widgets
  • user-avatar
    Login

    Hourly Weather Tlumach

    Today, 17 January, Wednesday

    Time Temperature Precipitation Wind Pressure Humidity
    00:00 -10°C° 0 mm 5 mps 724 mmHg 100%
    01:00 -10°C° 0 mm 5 mps 723 mmHg 100%
    02:00 -8°C° 0 mm 4 mps 723 mmHg 100%
    03:00 -8°C° 0 mm 4 mps 723 mmHg 100%
    04:00 -6°C° 0 mm 3 mps 722 mmHg 98%
    05:00 -6°C° 0 mm 3 mps 722 mmHg 99%
    06:00 -6°C° 0 mm 3 mps 722 mmHg 98%
    07:00 -5°C° 0 mm 2 mps 722 mmHg 97%
    08:00 -6°C° 0 mm 3 mps 722 mmHg 98%
    09:00 -4°C° 0 mm 2 mps 722 mmHg 96%
    10:00 -1°C° 0 mm 1 mps 722 mmHg 97%
    11:00 0°C° 0 mm 1 mps 722 mmHg 96%
    12:00 0°C° 0 mm 1 mps 722 mmHg 98%
    13:00 -1°C° 0 mm 2 mps 722 mmHg 99%
    14:00 +1°C° 0 mm 2 mps 721 mmHg 97%
    15:00 +1°C° 0 mm 2 mps 722 mmHg 97%
    16:00 +2°C° 0 mm 1 mps 721 mmHg 98%
    17:00 +1°C° 0 mm 0 mps 721 mmHg 92%
    18:00 -1°C° 0 mm 2 mps 721 mmHg 98%
    19:00 +1°C° 0 mm 1 mps 721 mmHg 95%
    20:00 +1°C° 0 mm 1 mps 721 mmHg 91%
    21:00 0°C° 0 mm 1 mps 722 mmHg 93%
    22:00 -2°C° 0 mm 2 mps 722 mmHg 97%
    23:00 -4°C° 0 mm 4 mps 722 mmHg 100%

    Tomorrow, 18 January, Thursday

    Time Temperature Precipitation Wind Pressure Humidity
    00:00 -4°C° 0.1 mm 4 mps 723 mmHg 100%
    01:00 -4°C° 0 mm 4 mps 723 mmHg 100%
    02:00 -4°C° 0.1 mm 5 mps 724 mmHg 100%
    03:00 -4°C° 0 mm 4 mps 724 mmHg 100%
    04:00 -5°C° 0 mm 5 mps 724 mmHg 100%
    05:00 -4°C° 0.1 mm 4 mps 725 mmHg 100%
    06:00 -6°C° 0 mm 5 mps 725 mmHg 100%
    07:00 -7°C° 0 mm 5 mps 726 mmHg 100%
    08:00 -6°C° 0 mm 5 mps 726 mmHg 100%
    09:00 -6°C° 0 mm 6 mps 726 mmHg 100%
    10:00 -7°C° 0 mm 7 mps 727 mmHg 99%
    11:00 -6°C° 0 mm 7 mps 727 mmHg 99%
    12:00 -4°C° 0 mm 7 mps 728 mmHg 98%
    13:00 -4°C° 0 mm 7 mps 728 mmHg 97%
    14:00 -4°C° 0 mm 7 mps 728 mmHg 96%
    15:00 -4°C° 0 mm 6 mps 728 mmHg 96%
    16:00 -5°C° 0 mm 6 mps 728 mmHg 95%
    17:00 -5°C° 0 mm 3 mps 729 mmHg 95%
    18:00 -5°C° 0 mm 2 mps 729 mmHg 94%
    19:00 -7°C° 0 mm 3 mps 729 mmHg 94%
    20:00 -8°C° 0 mm 3 mps 729 mmHg 90%
    21:00 -6°C° 0 mm 2 mps 728 mmHg 81%
    22:00 -9°C° 0 mm 3 mps 727 mmHg 87%
    23:00 -10°C° 0 mm 4 mps 726 mmHg 92%

    Day after tomorrow, 19 January, Friday

    Time Temperature Precipitation Wind Pressure Humidity
    00:00 -10°C° 0 mm 5 mps 725 mmHg 95%
    01:00 -9°C° 0 mm 4 mps 723 mmHg 97%
    02:00 -8°C° 0 mm 4 mps 723 mmHg 98%
    03:00 -5°C° 0 mm 3 mps 723 mmHg 94%
    04:00 -2°C° 0 mm 3 mps 722 mmHg 86%
    05:00 -2°C° 0 mm 3 mps 722 mmHg 85%
    06:00 -1°C° 0 mm 2 mps 722 mmHg 79%
    07:00 +1°C° 0 mm 1 mps 723 mmHg 77%
    08:00 +1°C° 0 mm 1 mps 723 mmHg 81%
    09:00 -2°C° 0 mm 2 mps 723 mmHg 85%
    10:00 -2°C° 0 mm 3 mps 724 mmHg 91%
    11:00 -1°C° 0 mm 4 mps 724 mmHg 92%
    12:00 +1°C° 0 mm 5 mps 725 mmHg 90%
    13:00 +1°C° 0 mm 5 mps 725 mmHg 88%
    14:00 +1°C° 0 mm 5 mps 726 mmHg 89%
    15:00 0°C° 0 mm 5 mps 726 mmHg 89%
    16:00 -1°C° 0 mm 4 mps 727 mmHg 92%
    17:00 -2°C° 0 mm 4 mps 727 mmHg 96%
    18:00 -4°C° 0 mm 4 mps 728 mmHg 97%
    19:00 -5°C° 0 mm 4 mps 728 mmHg 97%
    20:00 -5°C° 0 mm 4 mps 729 mmHg 97%
    21:00 -7°C° 0 mm 5 mps 730 mmHg 97%
    22:00 -8°C° 0 mm 5 mps 730 mmHg 99%
    23:00 -8°C° 0 mm 4 mps 731 mmHg 100%

    20 January, Saturday

    Time Temperature Precipitation Wind Pressure Humidity
    00:00 -8°C° 0 mm 3 mps 731 mmHg 100%
    01:00 -8°C° 0 mm 3 mps 731 mmHg 100%
    02:00 -8°C° 0 mm 2 mps 731 mmHg 100%
    03:00 -7°C° 0 mm 1 mps 732 mmHg 100%
    04:00 -9°C° 0 mm 2 mps 732 mmHg 100%
    05:00 -9°C° 0 mm 2 mps 732 mmHg 100%
    06:00 -7°C° 0 mm 1 mps 732 mmHg 100%
    07:00 -7°C° 0 mm 1 mps 732 mmHg 100%
    08:00 -6°C° 0 mm 1 mps 732 mmHg 100%
    09:00 -7°C° 0 mm 2 mps 732 mmHg 100%
    10:00 -6°C° 0 mm 2 mps 732 mmHg 100%
    11:00 -6°C° 0 mm 3 mps 732 mmHg 100%
    12:00 -7°C° 0.2 mm 5 mps 732 mmHg 100%
    13:00 -6°C° 0.1 mm 5 mps 731 mmHg 100%
    14:00 -6°C° 0 mm 5 mps 730 mmHg 100%

    21 January, Sunday

    Time Temperature Precipitation Wind Pressure Humidity

    22 January, Monday

    Time Temperature Precipitation Wind Pressure Humidity
    Show more